243P/NEAT (2018)

Japanese version
Home page
Updated on May 20, 2019

---------------------------------------------------------------------

* Profile

* Pictures

* Orbital Elements

Epoch 2018 Aug. 30.0 TT = JDT 2458360.5
T 2018 Aug. 26.00689 TT                                 MPCW
q   2.4544438            (2000.0)            P               Q
n   0.13144874     Peri.  283.55482     +0.97228322     -0.19238738
a   3.8308789      Node    87.65877     +0.23016404     +0.88749145
e   0.3593001      Incl.    7.64145     -0.04110774     +0.41874339
P   7.50
From 334 observations 2003 Aug. 1-2018 Sept. 19, mean residual 0".6.

* Finding Charts

* Magnitudes Graph

        m1 =    0.7 + 5 log d +  40 log r(t - 50)  [   ,108]  (             - 2018 Dec. 12)
        m1 = -108   + 5 log d + 300 log r          [108,135]  (2018 Dec. 12 - 2019 Jan.  8)
        m1 =    0.7 + 5 log d +  40 log r(t - 50)  [135,   ]  (2019 Jan.  8 -             )

---------------------------------------------------------------------

The orbital elements are published on M.P.E.C. 2018-S50.
The charts are made with StellaNavigator Ver.10 (AstroArts).
The magnitudes graphs are made with Comet for Windows.

---------------------------------------------------------------------

Copyright(C) Seiichi Yoshida (comet@aerith.net). All rights reserved.